STARLINK-11193, 60195

Orbit data source: Space-Track

STARLINK-11193, 60195 is a payload satellite owned by SpaceX/Seattle (US) in LEO that was launched on Wed, 03 Jul 2024 UTC via an FALCON 9 launch vehicle from the Air Force Eastern Test Range (AFETR). Payload-class satellites include a variety of spacecraft equipped with specific instruments for various scientific and technological missions. These include communications satellites like Starlink; space stations such as the ISS; scientific satellites like the Hubble; Earth observation satellites from companies like Planet Labs, Umbra, and HawkEye 360; GPS; miniature CubeSats for education and research; and military/defense satellites.

Loading next visibility...
Identifier
60195, 2024-124N
Orbit
LEO
Country
Flag of USUS
Related business
Manufacturer
SpaceX/Seattle
Mission
Operational Commercial Communications
Bus & Motor
STARLINK V2MD, Unknown motor
Mass
960 kg wet, ~910 kg dry
Launch date (UTC)
2024-07-03 (1 year ago)
Launch vehicle
FALCON 9
Launch site
Air Force Eastern Test Range (AFETR)
Object type
Payload
Rocket body
Debris
Shape & HBR
Box + 2 Pan, 14.5 m
Radar Cross Section
36.964 m², Large (>1 m²)

Expand to show TLE details & history
Last TLE update: 21 hours ago

TLE from 21 hours ago
0 STARLINK-11193
1 60195U 24124N   25257.44801497  .00006919  00000-0  61903-4 0  9990
2 60195  53.1590 310.0363 0001685  84.1342 275.9868 15.69717812 68853
Epoch: 2025-09-14T10:45Z
TLE epoch observation values (Epoch: 2025-09-14T10:45:08.493Z)
Latitude
-0.00001°
Longitude
155.08402°
Altitude
360.501 km
Speed
7.694 km/s
True Right ascension
20h 40m 08s
True Declination
0° 00' 00"
Sunlit
Object was in full shadow at epoch
Visualization orbit readout
Latitude
Unknown
Longitude
Unknown
Altitude
Unknown
Speed
Unknown
Apparent Right ascension
Unknown
Apparent Declination
Unknown
Sunlit
N/A
Visualization observer readout
Local Sidereal Time
00:09:05
Azimuth
Unknown
Elevation
Unknown
Doppler factor
Unknown
Orbital elements
Apogee altitude
361.101 km
Perigee altitude
358.83 km
Semi-major axis
6,738.102 km
Eccentricity
0.00017
Inclination
53.159°
RAAN
310.0363°
Arg. of periapsis
84.1342°
True anomaly
275.9676°
Mean anomaly
275.9868°
Eccentric anomaly
275.9772°
Mean motion
3.92407 °/min
Orbital period
91.74 mins
BSTAR
0.000061903
Loading maneuver chart data...
Computing Atmospheric mass density...
Loading historical data...
Loading historical data...
Loading historical data...
Loading historical data...
Loading historical data...
Loading historical data...
Loading historical data...

Documentation

Showing up to 5 results
|